sat.trackr.live / text

‹ back to catalog

FLOCK 4H-36

NORAD 66739 · 2025-276CB

PAYLOAD ACTIVE UNKNOWN

§ Identity

Operator
Country
US
Launch date
2025-11-28
Launch site
AFWTR
Launch vehicle
Mass (kg)
RCS (m²)

Purposes: earth_obs

External: N2YO · Heavens-Above · Gunter

§ Orbital elements

Epoch: 2026-05-25T03:51:56.097216Z

Period
94.73 min
Inclination
97.4248°
Eccentricity
0.0003680
Mean motion
15.20115741 rev/d
Perigee alt
503.0 km
Apogee alt
508.0 km
Semi-major
6,883.6 km
B*
2.5429e-4
RAAN
219.3389°
Arg perigee
62.5940°
Mean anomaly
297.5669°
Rev number
2,693

§ Raw data

FLOCK 4H-361 66739U 25276CB  26145.16106594  .00005428  00000+0  25429-3 0  99962 66739  97.4248 219.3389 0003680  62.5940 297.5669 15.20115741 26936

JSON: /api/v1/satellites/66739 · /tle

For live sub-satellite position, see the globe view (requires WebGL).

§ Visibility from observer

Set your observer location to see the next 7 days of passes ≥ 10°. The values pass through the URL so the page stays shareable.

No JS? Fill the form by hand. The geolocation button needs JavaScript.